Home > Weather > St. Albert > Past weeks

Flag for Canada Past Weather in St. Albert, Alberta, Canada — Yesterday and Last 2 Weeks

Now
49 °F

Cool.


Feels Like: 46 °F
Forecast: 45 / 58 °F
Wind: 6 mph from West

Location: Edmonton Municipal

Current Time: May 28, 2016 at 3:55:01 AM

Latest Report: May 28, 2016 at 3:00 AM


Visibility: N/A

Pressure: 29.85 "Hg (27.58 "Hg at 653m altitude)

Humidity: 85%

Dew Point: 44 °F

Location of St. AlbertLocation

Past Weather in St. Albert — Graph

°F

St. Albert Temperature Yesterday

Maximum temperature yesterday: 63 °F (at 4:00 PM)
Minimum temperature yesterday: 51 °F (at 11:00 PM)
Average temperature yesterday: 55 °F

High & Low Weather Summary for the Past Weeks

 TemperatureHumidityPressure
High79 °F (May 16, 4:00 PM)100% (May 20, 4:00 AM)30.51 "Hg (May 20, 4:00 AM)
Low32 °F (May 13, 6:00 AM)11% (May 16, 5:00 PM)29.46 "Hg (May 22, 1:00 PM)
Average54 °F63%29.91 "Hg
* Reported May 13 2:00 AM — May 28 2:00 AM, St. Albert, Weather by CustomWeather, © 2016

Note: Actual official high and low records may vary slightly from our data, if they occured in-between our weather recording intervals... More about our weather records

Advertising

St. Albert Weather History for the Previous 24 Hours

Scroll right to see more
 ConditionsComfort  
Time TempWeatherWind HumidityBarometerVisibility
2:00 AM
Sat, May 28
49 °FCool.7 mph86%29.83 "HgN/A
1:00 AM50 °FCool.7 mph89%29.83 "HgN/A
12:00 AM52 °FCool.10 mph83%29.83 "HgN/A
11:00 PM
Fri, May 27
51 °FCool.9 mph87%29.83 "HgN/A
10:00 PM53 °FCool.8 mph81%29.81 "HgN/A
9:00 PM54 °FCool.9 mph82%29.80 "HgN/A
8:00 PM56 °FCool.7 mph77%29.79 "HgN/A
7:00 PM56 °FCool.9 mph75%29.79 "HgN/A
6:00 PM58 °FCool.12 mph76%29.78 "HgN/A
5:00 PM61 °FCool.12 mph70%29.76 "HgN/A
4:00 PM63 °FMild.12 mph64%29.75 "HgN/A
3:00 PM62 °FCool.7 mph66%29.76 "HgN/A
2:00 PM60 °FCool.2 mph80%29.77 "HgN/A
1:00 PM59 °FCool.3 mph80%29.78 "HgN/A
12:00 PM56 °FCool.1 mph85%29.80 "HgN/A
11:00 AM54 °FCool.5 mph89%29.80 "HgN/A
10:00 AM53 °FCool.5 mph89%29.80 "HgN/A
9:00 AM53 °FCool.1 mph90%29.80 "HgN/A
8:00 AM52 °FCool.2 mph93%29.80 "HgN/A
7:00 AM51 °FCool.6 mph94%29.80 "HgN/A
6:00 AM51 °FCool.5 mph93%29.79 "HgN/A
5:00 AM52 °FCool.2 mph93%29.80 "HgN/A
4:00 AM52 °FCool.3 mph93%29.80 "HgN/A
3:00 AM51 °FCool.2 mph93%29.80 "HgN/A
Weather by CustomWeather, © 2016

See weather overviewHow to use our weather pages